• In Latvia
  • List of Countries
  • For 7 days
  • Water Temperature
  • Satellite Maps
  • Weather Map
  • Weather Widgets
  • user-avatar
    Login

    Hourly Weather Shkoder

    Today, 28 March, Tuesday

    Time Temperature Precipitation Wind Pressure Humidity
    00:00 +4°C° 0 mm 3 mps 743 mmHg 76%
    01:00 +4°C° 0 mm 3 mps 743 mmHg 76%
    02:00 +4°C° 0 mm 3 mps 743 mmHg 76%
    03:00 +4°C° 0 mm 3 mps 744 mmHg 77%
    04:00 +3°C° 0 mm 3 mps 744 mmHg 77%
    05:00 +4°C° 0 mm 3 mps 744 mmHg 75%
    06:00 +5°C° 0 mm 3 mps 744 mmHg 73%
    07:00 +7°C° 0 mm 3 mps 744 mmHg 71%
    08:00 +9°C° 0 mm 3 mps 744 mmHg 65%
    09:00 +11°C° 0 mm 3 mps 743 mmHg 59%
    10:00 +14°C° 0 mm 2 mps 743 mmHg 53%
    11:00 +15°C° 0 mm 2 mps 743 mmHg 51%
    12:00 +17°C° 0 mm 2 mps 743 mmHg 49%
    13:00 +18°C° 0 mm 2 mps 743 mmHg 47%
    14:00 +17°C° 0 mm 2 mps 743 mmHg 49%
    15:00 +17°C° 0 mm 2 mps 742 mmHg 51%
    16:00 +17°C° 0 mm 3 mps 742 mmHg 52%
    17:00 +13°C° 0 mm 3 mps 743 mmHg 59%
    18:00 +11°C° 0 mm 3 mps 743 mmHg 66%
    19:00 +9°C° 0 mm 3 mps 743 mmHg 73%
    20:00 +9°C° 0 mm 3 mps 743 mmHg 72%
    21:00 +8°C° 0 mm 3 mps 744 mmHg 72%
    22:00 +8°C° 0 mm 2 mps 744 mmHg 72%
    23:00 +8°C° 0 mm 2 mps 744 mmHg 73%

    Tomorrow, 29 March, Wednesday

    Time Temperature Precipitation Wind Pressure Humidity
    00:00 +8°C° 0 mm 2 mps 744 mmHg 74%
    01:00 +8°C° 0 mm 3 mps 744 mmHg 75%
    02:00 +7°C° 0 mm 3 mps 744 mmHg 76%
    03:00 +7°C° 0 mm 3 mps 744 mmHg 77%
    04:00 +7°C° 0 mm 3 mps 744 mmHg 78%
    05:00 +8°C° 0 mm 2 mps 744 mmHg 76%
    06:00 +9°C° 0 mm 2 mps 744 mmHg 74%
    07:00 +10°C° 0 mm 2 mps 744 mmHg 72%
    08:00 +13°C° 0 mm 2 mps 744 mmHg 65%
    09:00 +15°C° 0 mm 2 mps 744 mmHg 57%
    10:00 +18°C° 0 mm 2 mps 744 mmHg 50%
    11:00 +19°C° 0 mm 2 mps 744 mmHg 48%
    12:00 +20°C° 0 mm 2 mps 743 mmHg 45%
    13:00 +21°C° 0 mm 2 mps 743 mmHg 43%
    14:00 +20°C° 0 mm 2 mps 743 mmHg 45%
    15:00 +20°C° 0 mm 2 mps 743 mmHg 47%
    16:00 +19°C° 0 mm 3 mps 742 mmHg 50%
    17:00 +17°C° 0 mm 3 mps 742 mmHg 57%
    18:00 +14°C° 0 mm 3 mps 743 mmHg 64%
    19:00 +12°C° 0 mm 3 mps 743 mmHg 71%
    20:00 +11°C° 0 mm 3 mps 743 mmHg 72%
    21:00 +11°C° 0 mm 3 mps 743 mmHg 73%
    22:00 +10°C° 0 mm 3 mps 744 mmHg 74%
    23:00 +10°C° 0 mm 3 mps 744 mmHg 75%

    Day after tomorrow, 30 March, Thursday

    Time Temperature Precipitation Wind Pressure Humidity
    00:00 +10°C° 0 mm 3 mps 744 mmHg 76%
    01:00 +10°C° 0 mm 3 mps 744 mmHg 78%
    02:00 +10°C° 0 mm 3 mps 744 mmHg 79%
    03:00 +9°C° 0 mm 3 mps 744 mmHg 79%
    04:00 +9°C° 0 mm 3 mps 744 mmHg 80%
    05:00 +10°C° 0 mm 3 mps 744 mmHg 78%
    06:00 +11°C° 0 mm 3 mps 744 mmHg 77%
    07:00 +11°C° 0 mm 3 mps 744 mmHg 75%
    08:00 +13°C° 0 mm 3 mps 744 mmHg 68%
    09:00 +16°C° 0 mm 3 mps 744 mmHg 62%
    10:00 +18°C° 0 mm 3 mps 744 mmHg 56%
    11:00 +19°C° 0 mm 3 mps 744 mmHg 53%
    12:00 +20°C° 0 mm 3 mps 744 mmHg 51%
    13:00 +20°C° 0 mm 3 mps 744 mmHg 49%
    14:00 +20°C° 0 mm 3 mps 744 mmHg 51%
    15:00 +20°C° 0 mm 3 mps 743 mmHg 53%
    16:00 +20°C° 0 mm 3 mps 743 mmHg 54%
    17:00 +18°C° 0 mm 3 mps 743 mmHg 62%
    18:00 +16°C° 0 mm 3 mps 744 mmHg 69%
    19:00 +13°C° 0 mm 3 mps 744 mmHg 76%
    20:00 +13°C° 0 mm 3 mps 744 mmHg 78%
    21:00 +12°C° 0 mm 3 mps 745 mmHg 80%
    22:00 +12°C° 0 mm 3 mps 745 mmHg 82%
    23:00 +12°C° 0 mm 3 mps 745 mmHg 83%

    31 March, Friday

    Time Temperature Precipitation Wind Pressure Humidity
    00:00 +11°C° 0 mm 3 mps 745 mmHg 84%
    01:00 +11°C° 0 mm 3 mps 745 mmHg 85%
    02:00 +11°C° 0 mm 3 mps 745 mmHg 86%
    03:00 +11°C° 0 mm 3 mps 745 mmHg 86%
    04:00 +11°C° 0 mm 3 mps 745 mmHg 87%
    05:00 +11°C° 0 mm 3 mps 745 mmHg 85%
    06:00 +12°C° 0 mm 3 mps 745 mmHg 82%
    07:00 +13°C° 0 mm 3 mps 745 mmHg 80%
    08:00 +16°C° 0 mm 2 mps 745 mmHg 72%
    09:00 +18°C° 0 mm 2 mps 745 mmHg 64%
    10:00 +19°C° 0 mm 2 mps 745 mmHg 56%
    11:00 +20°C° 0 mm 2 mps 745 mmHg 54%
    12:00 +21°C° 0 mm 2 mps 744 mmHg 52%
    13:00 +23°C° 0 mm 2 mps 744 mmHg 50%
    14:00 +21°C° 0 mm 2 mps 744 mmHg 51%
    15:00 +21°C° 0 mm 2 mps 743 mmHg 53%
    16:00 +20°C° 0 mm 2 mps 743 mmHg 55%
    17:00 +18°C° 0 mm 2 mps 743 mmHg 63%
    18:00 +16°C° 0 mm 2 mps 743 mmHg 71%
    19:00 +14°C° 0 mm 2 mps 743 mmHg 79%
    20:00 +14°C° 0 mm 2 mps 743 mmHg 79%
    21:00 +13°C° 0 mm 1 mps 743 mmHg 79%
    22:00 +13°C° 0 mm 1 mps 743 mmHg 79%
    23:00 +13°C° 0 mm 1 mps 743 mmHg 80%

    1 April, Saturday

    Time Temperature Precipitation Wind Pressure Humidity
    00:00 +12°C° 0 mm 1 mps 743 mmHg 80%
    01:00 +12°C° 0 mm 1 mps 743 mmHg 81%
    02:00 +12°C° 0 mm 1 mps 743 mmHg 82%
    03:00 +11°C° 0 mm 1 mps 742 mmHg 83%
    04:00 +11°C° 0 mm 1 mps 742 mmHg 83%
    05:00 +12°C° 0 mm 1 mps 743 mmHg 80%
    06:00 +14°C° 0 mm 1 mps 743 mmHg 77%
    07:00 +15°C° 0 mm 1 mps 743 mmHg 74%
    08:00 +18°C° 0 mm 1 mps 743 mmHg 67%
    09:00 +20°C° 0 mm 1 mps 743 mmHg 59%
    10:00 +22°C° 0 mm 1 mps 743 mmHg 52%
    11:00 +22°C° 0.1 mm 1 mps 743 mmHg 52%
    12:00 +21°C° 0.1 mm 2 mps 742 mmHg 52%
    13:00 +21°C° 0.1 mm 2 mps 742 mmHg 52%
    14:00 +21°C° 0.2 mm 2 mps 742 mmHg 54%
    15:00 +20°C° 0.2 mm 2 mps 742 mmHg 57%
    16:00 +21°C° 0.2 mm 1 mps 741 mmHg 60%
    17:00 +19°C° 0 mm 1 mps 741 mmHg 68%
    18:00 +16°C° 0 mm 1 mps 742 mmHg 77%
    19:00 +12°C° 0 mm 0 mps 742 mmHg 86%
    20:00 +12°C° 0 mm 0 mps 742 mmHg 87%
    21:00 +13°C° 0 mm 1 mps 742 mmHg 87%
    22:00 +12°C° 0 mm 1 mps 742 mmHg 88%
    23:00 +12°C° 0.1 mm 1 mps 743 mmHg 88%

    2 April, Sunday

    Time Temperature Precipitation Wind Pressure Humidity
    00:00 +11°C° 0.1 mm 1 mps 743 mmHg 89%
    01:00 +10°C° 0.1 mm 0 mps 743 mmHg 89%
    02:00 +11°C° 0 mm 1 mps 743 mmHg 90%
    03:00 +11°C° 0 mm 1 mps 743 mmHg 90%
    04:00 +11°C° 0 mm 1 mps 743 mmHg 91%
    05:00 +12°C° 0 mm 1 mps 743 mmHg 86%
    06:00 +14°C° 0 mm 1 mps 743 mmHg 81%
    07:00 +15°C° 0 mm 1 mps 744 mmHg 76%
    08:00 +18°C° 0 mm 1 mps 744 mmHg 70%
    09:00 +20°C° 0 mm 1 mps 744 mmHg 64%
    10:00 +21°C° 0 mm 1 mps 744 mmHg 57%
    11:00 +22°C° 0.2 mm 1 mps 744 mmHg 56%
    12:00 +21°C° 0.2 mm 2 mps 743 mmHg 55%
    13:00 +23°C° 0.2 mm 2 mps 743 mmHg 53%
    14:00 +21°C° 0.4 mm 2 mps 743 mmHg 56%
    15:00 +20°C° 0.4 mm 2 mps 742 mmHg 59%
    16:00 +20°C° 0.4 mm 2 mps 742 mmHg 62%
    17:00 +19°C° 0.2 mm 1 mps 742 mmHg 70%
    18:00 +15°C° 0.2 mm 1 mps 742 mmHg 78%
    19:00 +12°C° 0.2 mm 0 mps 742 mmHg 87%
    20:00 +12°C° 0.1 mm 0 mps 742 mmHg 88%
    21:00 +11°C° 0.1 mm 0 mps 743 mmHg 89%
    22:00 +11°C° 0.1 mm 0 mps 743 mmHg 90%
    23:00 +10°C° 0 mm 0 mps 743 mmHg 90%
    Show more